Theta_e
308 308 308 308 308 308 307 304 304 305 305 306 307 308 309 306 305 308 312 313 311 309 308 308 309 310 313 315 317 322 329 330 329 329 328 326 326 327 325 323 323 324 325 336 337
308 308 308 308 308 308 305 302 302 304 305 306 306 306 307 307 308 311 310 310 307 307 307 310 312 311 311 314 314 321 323 327 328 328 328 327 327 327 326 324 323 323 326 334 337
307 307 307 307 308 306 303 301 302 303 305 305 306 306 307 309 313 313 311 308 308 306 306 311 313 312 311 313 314 319 323 323 324 326 328 328 327 327 327 325 323 323 324 331 337
304 306 305 303 303 302 301 301 303 304 304 305 305 306 307 313 319 315 310 311 311 308 312 313 312 310 312 312 314 315 319 322 323 324 325 326 327 328 327 326 324 325 324 325 325
299 298 299 299 300 301 300 301 302 303 304 304 304 306 311 318 317 312 312 312 312 313 315 313 310 310 312 312 312 314 316 316 321 323 323 324 325 326 326 327 327 326 326 324 324
305 303 304 300 299 300 300 301 302 303 304 305 305 306 316 321 311 312 312 313 313 314 313 312 312 311 311 309 309 312 314 316 317 316 317 322 325 325 326 326 327 328 326 325 325
307 307 306 303 299 300 300 301 302 303 305 305 306 312 314 317 311 311 311 311 312 313 312 312 312 311 310 310 310 310 310 312 315 317 317 317 319 321 325 325 325 325 326 327 326
308 308 308 307 303 299 301 301 302 304 307 305 307 313 317 311 309 310 310 310 311 310 310 311 312 310 310 310 310 310 309 309 314 316 317 316 318 318 319 321 325 326 326 327 327
309 307 306 306 305 301 301 302 304 305 309 307 313 314 317 311 310 310 310 310 310 310 311 311 311 310 310 310 308 310 308 309 310 311 313 315 317 318 318 319 322 322 322 326 327
305 305 305 307 305 303 302 305 311 312 313 315 315 315 315 314 311 310 310 310 310 310 311 312 310 309 308 310 311 310 310 311 311 311 311 310 312 315 317 318 319 321 322 324 326
302 303 304 304 305 304 303 309 313 315 314 318 319 317 313 311 311 310 311 310 311 310 309 311 309 309 310 311 312 312 312 313 313 313 313 312 313 313 314 314 317 319 319 321 324
306 304 304 304 304 302 303 310 310 310 311 312 311 311 311 310 310 312 312 310 310 309 309 309 309 311 311 311 311 311 311 311 312 313 312 312 313 313 313 313 314 315 319 320 322
306 306 304 303 303 302 307 313 311 312 310 312 313 311 311 310 311 311 311 310 309 308 309 309 310 311 310 309 310 309 310 311 311 312 312 311 312 312 312 313 314 315 316 320 320
307 306 304 303 310 312 313 312 312 311 312 316 311 311 311 310 311 312 311 309 308 308 309 309 309 311 310 310 312 313 313 313 313 313 312 312 312 311 312 313 313 314 315 316 317
306 306 305 305 305 310 311 311 312 312 325 314 311 311 311 310 312 313 311 309 309 309 309 309 309 310 311 314 314 314 314 313 313 312 312 312 312 312 312 313 312 312 313 314 317
306 307 306 311 311 313 312 311 313 319 324 311 312 311 310 312 312 312 311 310 310 309 308 308 310 312 313 313 313 313 313 312 313 312 313 311 313 313 312 312 313 313 313 314 315
306 307 307 305 312 312 312 311 317 323 316 312 311 311 310 311 313 311 311 309 309 310 309 310 309 313 314 314 313 312 311 313 313 315 315 312 311 312 312 312 313 314 314 314 314
306 308 309 307 311 312 311 313 322 318 313 311 310 310 311 313 312 311 311 311 312 309 308 310 310 309 315 313 311 312 315 318 319 315 313 314 316 312 311 312 317 317 315 314 314
306 310 314 314 314 312 312 317 320 316 311 309 310 312 313 313 312 312 311 311 312 310 310 310 311 311 310 310 310 311 314 311 317 316 320 317 313 313 316 317 317 317 316 316 315
305 311 315 315 313 313 312 317 317 310 309 308 308 312 314 313 312 311 311 313 313 313 311 313 314 312 311 311 311 310 311 313 314 318 318 313 312 316 318 318 316 316 316 316 318
308 314 315 314 311 312 316 317 314 310 310 310 310 311 313 313 311 312 311 311 314 313 311 311 313 314 312 311 310 311 312 317 317 319 319 318 315 318 317 316 315 314 314 315 319
309 315 313 310 312 317 318 314 312 313 311 310 311 313 313 313 312 311 311 313 312 314 315 314 315 314 313 311 311 315 316 315 319 318 320 319 314 317 314 314 314 314 314 315 316
309 314 312 311 317 314 313 313 311 312 311 310 310 311 311 312 314 314 312 312 311 314 315 315 313 315 312 309 313 314 313 312 313 314 315 316 314 316 316 316 315 315 314 315 318
311 314 314 312 312 310 310 312 312 312 312 311 311 310 311 312 311 313 311 311 310 312 315 313 314 314 315 314 313 313 312 312 312 313 313 312 313 313 317 316 315 316 316 316 317
311 312 309 312 310 310 311 312 313 314 312 311 312 311 310 312 311 310 310 310 312 313 312 312 316 315 315 315 314 313 313 311 311 310 312 312 312 314 315 316 314 317 316 314 315
306 306 305 306 309 310 311 312 311 311 309 309 310 310 309 309 309 311 310 311 311 311 314 314 317 316 317 316 314 314 314 311 311 315 317 317 314 315 315 314 314 314 314 313 314
306 306 307 306 308 308 309 308 311 310 310 309 308 308 309 309 309 309 309 309 310 310 310 315 316 315 314 313 314 316 313 314 315 315 316 317 315 313 314 315 314 313 313 315 316
Wind_Speed
19 19 19 20 20 20 19 18 16 15 16 18 18 17 17 19 22 15 6 7 6 9 11 14 12 13 12 5 7 4 6 10 13 15 19 18 12 16 11 6 7 4 1 5 10
20 20 20 20 20 20 20 18 17 16 17 18 18 19 20 21 19 14 7 6 5 7 7 9 8 11 4 4 5 7 8 19 14 14 15 14 14 16 12 12 9 9 4 5 12
22 22 22 22 21 21 20 19 18 18 18 19 20 20 19 15 6 1 7 4 7 9 8 10 17 8 6 8 11 7 18 14 18 18 19 19 17 17 16 12 10 8 11 10 5
23 24 24 24 22 22 21 19 19 19 20 21 22 21 19 1 3 8 1 1 1 3 5 9 7 6 4 7 7 18 16 18 20 22 23 22 14 18 17 14 10 10 6 3 14
25 25 26 26 24 22 21 20 19 20 22 24 21 17 7 3 6 4 1 3 7 8 12 9 7 6 9 6 12 18 16 17 18 21 24 23 23 19 21 16 16 17 11 9 8
25 26 28 26 25 23 21 20 20 21 23 20 15 12 2 5 2 4 5 9 10 9 9 8 4 8 5 7 7 7 13 16 17 19 19 20 22 20 23 16 17 16 11 10 7
26 28 28 27 26 24 22 20 20 21 19 15 10 5 5 11 3 6 8 7 4 6 3 10 12 7 9 9 7 10 13 15 15 15 16 10 18 25 18 19 18 21 20 14 8
28 29 30 29 27 24 22 20 20 19 17 11 9 3 7 2 5 6 7 14 5 8 11 12 10 5 5 8 9 7 7 6 2 9 14 9 24 21 9 12 18 16 18 21 11
29 31 33 32 29 24 22 20 19 18 15 10 5 5 7 9 4 5 9 9 9 11 11 12 5 6 7 6 5 6 6 10 13 13 12 10 24 26 18 17 17 20 22 18 20
30 34 35 33 28 20 21 21 15 14 6 4 10 5 7 7 5 8 15 7 7 7 7 6 5 6 4 4 4 7 8 10 10 5 8 13 23 16 14 19 21 17 12 14 13
35 36 38 31 24 16 19 8 1 2 3 7 6 7 15 5 6 6 4 3 6 7 6 6 5 5 10 9 9 11 13 12 14 13 14 12 19 18 14 16 16 20 21 19 19
37 38 37 28 19 12 10 3 8 8 7 11 14 18 10 1 3 10 5 1 5 7 10 6 6 7 10 11 10 11 14 12 13 10 15 13 22 18 15 16 16 14 19 21 16
39 38 36 25 16 10 9 9 10 11 4 9 10 6 7 11 7 7 3 4 6 7 8 6 10 13 13 11 11 11 11 12 17 15 14 10 19 23 21 16 17 19 11 9 14
40 38 32 25 9 8 7 10 13 10 2 5 5 3 4 7 6 11 4 4 4 6 7 5 8 10 8 9 8 7 15 15 16 14 9 4 17 16 17 20 15 16 14 10 10
40 36 26 12 15 9 11 13 11 1 3 7 7 7 4 5 4 4 14 6 7 9 4 7 12 11 6 7 11 8 13 17 15 15 14 14 9 15 8 15 13 13 17 18 12
41 34 23 5 11 13 17 15 10 2 3 5 7 7 8 7 9 2 4 6 10 9 11 13 15 2 3 6 9 11 6 11 5 5 12 17 12 20 13 17 17 14 18 19 17
40 28 14 8 5 21 15 9 1 2 4 4 5 9 9 12 5 2 3 7 6 4 3 5 5 5 4 1 4 4 6 4 4 2 9 13 13 19 14 18 15 13 13 18 15
35 15 6 8 9 14 15 3 2 9 10 11 12 12 12 17 6 4 8 8 3 7 5 2 7 7 3 6 7 3 1 4 4 6 13 15 10 8 11 8 18 21 20 19 17
30 8 6 1 4 9 3 2 2 11 10 11 13 10 8 13 11 10 7 5 6 8 3 5 5 11 14 12 11 4 5 13 11 13 7 5 8 14 13 17 19 21 23 25 24
24 6 7 5 2 7 2 3 4 11 12 10 6 8 10 12 11 10 7 7 8 12 8 6 13 6 11 11 10 8 5 7 3 4 5 4 14 4 12 17 18 20 22 26 25
3 2 3 3 1 1 1 4 13 11 7 5 9 10 12 9 10 12 6 12 11 11 9 7 2 7 8 3 12 11 3 3 2 4 2 4 2 2 5 7 12 15 19 23 26
8 2 7 3 1 2 2 11 12 16 5 7 10 6 5 10 8 10 13 7 11 8 5 4 3 5 15 16 9 4 5 3 2 3 3 6 7 4 5 1 6 11 15 21 21
6 3 5 4 1 3 7 11 15 11 5 5 4 8 4 6 5 9 11 8 12 4 2 2 3 6 6 6 3 2 5 6 6 12 14 9 6 10 5 0 7 10 11 18 16
3 4 3 2 3 7 8 10 11 15 10 8 5 6 9 6 5 8 13 9 11 5 3 4 6 7 8 14 13 18 18 19 12 4 13 10 14 19 5 1 5 9 13 12 15
2 4 4 4 5 11 8 10 10 12 7 9 7 12 11 7 9 8 12 11 14 2 5 5 4 8 14 18 19 20 22 21 18 14 15 19 17 1 5 7 2 3 13 11 19
4 4 5 6 8 8 12 6 13 10 8 10 7 10 10 9 11 18 13 12 8 5 3 3 4 6 20 22 21 22 21 19 18 8 14 16 13 6 8 9 7 11 19 17 23
9 8 3 5 7 7 6 12 13 10 4 6 10 8 10 16 15 17 13 15 17 13 11 6 3 3 7 12 15 10 9 6 9 10 10 10 10 8 11 5 8 13 19 16 20
Wind_Direction
344 340 337 334 332 331 329 327 325 325 326 330 332 328 320 319 316 323 244 251 238 279 298 306 294 271 270 230 262 276 242 241 235 244 262 283 307 309 305 285 311 318 326 144 85
345 341 337 334 331 330 328 325 322 321 322 327 330 329 327 327 316 270 242 236 267 288 295 275 276 230 220 235 219 204 228 233 246 251 258 277 291 299 328 330 319 323 337 123 93
343 341 338 336 332 329 327 324 322 321 322 324 325 324 325 329 277 159 189 302 289 256 260 282 281 288 261 225 233 231 240 248 256 259 269 274 273 284 291 298 283 298 350 342 166
345 342 340 336 332 329 326 323 322 321 319 319 320 324 330 226 30 170 11 326 4 233 262 259 248 243 224 244 242 248 245 239 256 268 280 280 297 294 296 292 268 288 306 1 328
348 344 340 336 332 328 324 319 317 317 317 316 317 327 351 233 240 148 3 292 259 239 234 238 256 261 235 237 238 257 269 267 251 250 261 273 270 272 278 284 293 283 291 290 288
348 344 339 335 331 327 323 316 312 315 320 322 317 330 254 273 343 160 288 262 238 210 305 319 323 307 295 297 285 293 285 270 264 260 260 256 260 267 266 270 275 280 268 261 257
346 343 340 335 328 323 319 312 308 315 322 326 320 324 255 247 264 262 287 296 188 207 232 307 347 10 337 322 292 319 304 296 275 273 276 287 271 247 256 263 263 275 283 274 230
340 338 335 331 327 319 314 306 303 311 317 324 319 291 263 183 259 278 348 313 316 348 305 287 210 237 259 265 297 289 285 297 302 271 275 264 267 261 266 258 254 260 269 276 254
338 338 336 330 325 319 309 301 303 301 301 306 309 199 279 193 219 12 300 283 304 307 298 282 243 200 272 272 299 253 258 265 275 259 267 234 251 256 256 256 262 245 246 260 270
346 343 338 330 328 321 303 310 301 288 301 262 259 288 273 259 64 322 292 5 313 273 277 257 214 213 247 209 235 250 261 263 261 291 269 265 267 267 248 238 244 252 252 250 255
350 345 341 333 330 319 319 349 347 24 242 240 240 239 290 41 358 278 305 352 293 329 292 288 5 276 257 264 264 288 293 293 306 324 322 299 291 294 299 298 273 241 241 241 243
351 347 341 333 325 306 302 247 23 299 298 268 265 269 259 18 268 283 348 245 347 302 312 311 249 257 330 328 329 323 315 309 309 321 305 311 296 297 294 291 295 283 253 237 234
350 347 342 331 321 289 226 296 327 0 312 297 216 222 207 191 240 279 87 317 301 316 320 324 309 332 325 316 317 296 294 302 291 290 269 294 286 291 291 278 284 288 273 272 245
347 345 342 331 316 306 263 353 352 6 297 213 164 182 181 207 238 223 143 89 319 299 301 289 269 284 296 302 344 344 336 324 325 332 299 273 281 278 292 295 297 293 293 266 255
345 345 333 333 304 315 356 355 335 340 346 180 124 153 218 219 263 308 148 160 236 262 288 263 288 284 303 16 357 303 319 310 305 296 303 292 277 281 288 281 282 286 285 289 272
341 343 329 340 309 295 338 326 303 306 260 148 153 205 213 234 281 115 217 197 237 234 227 239 265 357 57 7 322 333 325 315 310 296 271 272 268 277 268 276 281 280 286 290 292
338 339 315 284 262 342 341 320 343 218 256 74 9 0 331 291 274 196 231 266 255 294 346 309 339 119 97 320 277 319 359 315 310 273 263 266 256 251 266 262 283 295 295 289 277
336 338 318 274 329 344 331 345 267 298 27 7 356 320 286 281 194 243 253 267 13 33 12 9 326 322 156 200 238 210 199 267 282 277 283 303 282 264 288 257 17 0 330 308 293
338 5 309 226 308 318 11 315 313 328 16 357 340 314 330 358 7 343 333 346 46 24 17 313 289 329 318 323 318 288 227 248 283 274 275 245 273 281 5 5 1 356 343 334 322
335 306 270 155 270 322 13 280 313 22 0 356 316 306 344 337 341 348 345 0 24 23 28 334 310 303 317 333 302 259 254 305 287 269 265 295 300 301 359 349 353 349 339 329 319
314 259 133 189 345 14 273 285 316 338 6 3 318 304 313 334 338 325 325 322 30 348 352 350 252 305 322 261 290 308 345 35 154 285 294 298 277 329 24 346 343 327 333 323 308
319 343 180 167 45 211 298 309 332 317 23 309 314 292 339 350 312 318 299 328 326 47 337 46 275 285 285 284 294 78 126 139 277 272 222 263 269 229 153 4 278 324 333 307 299
317 274 184 186 300 349 317 346 314 346 336 296 292 310 344 298 313 303 310 311 321 75 344 104 319 311 294 296 37 122 254 245 232 268 271 273 269 218 177 16 329 309 319 298 314
296 336 351 326 4 23 342 309 315 313 329 349 284 286 308 279 293 291 313 309 305 298 248 216 191 218 256 272 285 286 281 279 234 240 263 262 282 276 194 22 286 352 317 300 310
309 13 7 313 337 314 290 291 318 312 24 3 337 338 331 335 315 286 284 299 309 344 131 131 258 263 266 271 278 281 291 282 280 266 276 272 277 305 206 192 174 343 288 306 294
11 5 344 290 297 293 284 352 345 338 345 319 299 333 329 306 296 300 303 304 284 316 334 78 275 308 283 272 271 278 280 274 286 340 335 312 311 358 335 158 207 224 266 265 257
18 345 300 288 301 333 6 335 316 306 295 292 289 276 299 287 283 289 286 284 276 269 262 177 222 298 278 302 310 289 286 331 341 345 342 318 301 333 329 327 250 253 249 291 305